Weather History for KOLV - January, 2014

Change the Weather History Date:

Thursday, January 16, 2014

  Actual Average (KMEM) Record (KMEM)
Temperature  
Mean Temperature 36 °F 41 °F  
Max Temperature 51 °F 50 °F 77 °F (1943)
Min Temperature 21 °F 32 °F 3 °F (1982)
Degree Days  
Heating Degree Days 29 24  
Month to date heating degree days 384  
Since 1 July heating degree days 1548  
Cooling Degree Days 0 0  
Month to date cooling degree days 0  
Year to date cooling degree days 0  
Moisture  
Dew Point 26 °F    
Average Humidity 73    
Maximum Humidity 93    
Minimum Humidity 46    
Precipitation  
Precipitation 0.00 in 0.12 in 2.97 in (1882)
Month to date precipitation 2.07  
Year to date precipitation 2.07  
Snow  
Snow 0.00 in 0.10 in 4.50 in (1888)
Month to date snowfall 1.0  
Since 1 July snowfall 1.2  
Snow Depth -    
Sea Level Pressure  
Sea Level Pressure 30.00 in    
Wind  
Wind Speed 8 mph (SSW)    
Max Wind Speed 23 mph    
Max Gust Speed 30 mph    
Visibility 10 miles    
Events      
T = Trace of Precipitation, MM = Missing Value Source: NWS Daily Summary

Daily Weather History Graph

Daily Weather History Graph

Search for Another Location

Airport or City:

Trip Planner

Search our weather history database for the weather conditions in past years. The results will help you decide how hot, cold, wet, or windy it might be!

Date:

Astronomy

Jan. 16, 2014 Rise Set
Actual Time 7:06 AM CST 5:11 PM CST
Civil Twilight 6:38 AM CST 5:39 PM CST
Nautical Twilight 6:07 AM CST 6:10 PM CST
Astronomical Twilight 5:37 AM CST 6:40 PM CST
Moon 5:59 PM CST (1/16) 7:03 AM CST (1/16)
Length of Visible Light 11h 00m
Length of Day
10h 05m
Full, 100% of the Moon is Illuminated
Jan 16
Full
Jan 23
Last Quarter
Jan 30
New
Feb 6
First Quarter
Feb 14
Full

Hourly Weather History & Observations

Time (CST) Temp. Windchill Dew Point Humidity Pressure Visibility Wind Dir Wind Speed Gust Speed Precip Events Conditions
12:15 AM 23.0 °F 15.8 °F 19.4 °F 86% 30.13 in 10.0 mi South 5.8 mph - 0.00 in   Clear
12:35 AM 23.0 °F 15.8 °F 19.4 °F 86% 30.11 in 10.0 mi SSE 5.8 mph - 0.00 in   Clear
12:55 AM 23.0 °F 15.8 °F 19.4 °F 86% 30.11 in 9.0 mi SSE 5.8 mph - 0.00 in   Clear
1:15 AM 23.0 °F 17.0 °F 19.4 °F 86% 30.11 in 10.0 mi SSE 4.6 mph - 0.00 in   Clear
1:35 AM 23.0 °F 14.7 °F 19.4 °F 86% 30.12 in 10.0 mi South 6.9 mph - 0.00 in   Clear
1:55 AM 21.2 °F 12.6 °F 19.4 °F 93% 30.11 in 9.0 mi South 6.9 mph - 0.00 in   Clear
2:15 AM 21.2 °F 12.6 °F 19.4 °F 93% 30.10 in 10.0 mi South 6.9 mph - 0.00 in   Clear
2:35 AM 23.0 °F 13.9 °F 21.2 °F 93% 30.09 in 9.0 mi South 8.1 mph - 0.00 in   Scattered Clouds
2:55 AM 24.8 °F 16.9 °F 19.4 °F 80% 30.08 in 9.0 mi South 6.9 mph - 0.00 in   Partly Cloudy
3:15 AM 24.8 °F 16.9 °F 21.2 °F 86% 30.07 in 9.0 mi South 6.9 mph - 0.00 in   Clear
3:35 AM 26.6 °F 17.5 °F 21.2 °F 80% 30.08 in 10.0 mi South 9.2 mph - 0.00 in   Mostly Cloudy
3:55 AM 26.6 °F 17.5 °F 21.2 °F 80% 30.07 in 10.0 mi South 9.2 mph - 0.00 in   Overcast
4:15 AM 26.6 °F 17.5 °F 21.2 °F 80% 30.07 in 10.0 mi South 9.2 mph - 0.00 in   Overcast
4:35 AM 26.6 °F 17.5 °F 21.2 °F 80% 30.07 in 9.0 mi South 9.2 mph - 0.00 in   Overcast
4:55 AM 28.4 °F 19.1 °F 21.2 °F 74% 30.07 in 10.0 mi South 10.4 mph - 0.00 in   Overcast
5:15 AM 28.4 °F 19.1 °F 21.2 °F 74% 30.06 in 10.0 mi South 10.4 mph - 0.00 in   Overcast
5:35 AM 28.4 °F 19.1 °F 21.2 °F 74% 30.06 in 10.0 mi South 10.4 mph - 0.00 in   Scattered Clouds
5:55 AM 28.4 °F 19.1 °F 21.2 °F 74% 30.06 in 9.0 mi South 10.4 mph - 0.00 in   Clear
6:15 AM 28.4 °F 18.0 °F 21.2 °F 74% 30.04 in 10.0 mi South 12.7 mph - 0.00 in   Clear
6:35 AM 30.2 °F 19.8 °F 21.2 °F 69% 30.03 in 9.0 mi South 13.8 mph 19.6 mph 0.00 in   Partly Cloudy
6:50 AM 30.2 °F 20.2 °F 21.2 °F 69% 30.02 in 10.0 mi South 12.7 mph 18.4 mph N/A   Mostly Cloudy
6:55 AM 30.2 °F 21.3 °F 19.4 °F 64% 30.03 in 10.0 mi South 10.4 mph - 0.00 in   Partly Cloudy
7:50 AM 32.0 °F 21.6 °F 19.4 °F 60% 30.03 in 10.0 mi South 15.0 mph 19.6 mph N/A   Mostly Cloudy
8:50 AM 33.8 °F 22.8 °F 21.2 °F 60% 30.01 in 10.0 mi South 18.4 mph - N/A   Mostly Cloudy
10:50 AM 44.6 °F 37.4 °F 26.6 °F 49% 29.95 in 10.0 mi SSW 16.1 mph - N/A   Mostly Cloudy
11:50 AM 48.2 °F - 28.4 °F 46% 29.90 in 10.0 mi SW 23.0 mph 29.9 mph N/A   Mostly Cloudy
12:50 PM 46.4 °F 39.2 °F 30.2 °F 53% 29.88 in 10.0 mi SSW 18.4 mph 26.5 mph N/A   Scattered Clouds
1:50 PM 50.0 °F - 32.0 °F 50% 29.87 in 10.0 mi SSW 11.5 mph 17.3 mph N/A   Scattered Clouds
2:50 PM 51.8 °F - 32.0 °F 47% 29.86 in 10.0 mi SW 17.3 mph 23.0 mph N/A   Scattered Clouds
3:50 PM 51.8 °F - 33.8 °F 50% 29.87 in 10.0 mi SW 11.5 mph 17.3 mph N/A   Scattered Clouds
4:50 PM 50.0 °F - 33.8 °F 54% 29.87 in 10.0 mi SW 11.5 mph - N/A   Scattered Clouds
5:50 PM 44.6 °F 38.8 °F 33.8 °F 66% 29.87 in 10.0 mi SW 11.5 mph - N/A   Scattered Clouds
6:50 PM 46.4 °F - 33.8 °F 62% 29.91 in 10.0 mi Calm Calm - N/A   Mostly Cloudy
7:50 PM 42.8 °F - 33.8 °F 70% 29.93 in 10.0 mi Calm Calm - N/A   Scattered Clouds
8:55 PM 41.0 °F - 35.6 °F 81% 29.95 in 9.0 mi Calm Calm - 0.00 in   Clear
9:15 PM 39.2 °F 35.9 °F 33.8 °F 81% 29.95 in 10.0 mi WSW 4.6 mph - 0.00 in   Clear
9:35 PM 39.2 °F 35.9 °F 32.0 °F 75% 29.96 in 10.0 mi WSW 4.6 mph - 0.00 in   Clear
9:55 PM 39.2 °F - 32.0 °F 75% 29.96 in 10.0 mi Calm Calm - 0.00 in   Clear
10:15 PM 37.4 °F - 32.0 °F 81% 29.96 in 10.0 mi Calm Calm - 0.00 in   Clear
10:35 PM 37.4 °F 32.8 °F 32.0 °F 81% 29.95 in 9.0 mi SW 5.8 mph - 0.00 in   Clear
10:55 PM 37.4 °F 33.8 °F 30.2 °F 75% 29.95 in 10.0 mi SW 4.6 mph - 0.00 in   Clear
11:15 PM 39.2 °F - 30.2 °F 70% 29.94 in 10.0 mi Calm Calm - 0.00 in   Clear
11:35 PM 33.8 °F 28.6 °F 30.2 °F 87% 29.94 in 10.0 mi SW 5.8 mph - 0.00 in   Clear
11:55 PM 35.6 °F 29.9 °F 28.4 °F 75% 29.93 in 10.0 mi SW 6.9 mph - 0.00 in   Clear